Location: Prague
(50.0830°N, 14.4670°E)
Time: 02:09:10
(UTC+01:00)

AO-7 - Pass Details

Date: 18 December 2021
Orbit: 1440 x 1459 km, 101.9° (Epoch: 28 January)

Event Time Altitude Azimuth Distance (km) Brightness Sun altitude
Rises 05:45:53 0° 18° (NNE) 4,554 ? -19.7°
Reaches altitude 10° 05:48:45 10° 14° (NNE) 3,575 ? -19.3°
Maximum altitude 05:56:39 50° 303° (WNW) 1,794 ? -18.0°
Drops below altitude 10° 06:04:33 10° 231° (SW) 3,572 ? -16.8°
Sets 06:07:25 0° 227° (SW) 4,549 ? -16.4°
